[[{"header":{"parameterUnit":"m.s-1","parameterCategory":1,"la1":30.2991,"la2":30.254,"lo1":-89.0895,"lo2":-89.0444,"dy":0.0017,"dx":0.0017,"nx":28,"ny":28,"refTime":"2024-06-02T21:00:00:Z","depth":0,"parameterNumber":2,"parameterNumberName":"U-component_of_WINDS"},"data":[0,0,0,0,0,0,0,0,0,0,0,0,0,0,0,0,0,0,0,0,0,0,0,0,0,0,0,0,0,0,0,0,0,0,0,0,0,0,0,0,0,0,0,0,0,0,0,0,0,0,0,0,0,0,0,0,0,0,-2.3468,-2.3469,0,-2.351,-2.3511,-2.3511,-2.3462,-2.346,-2.3458,-2.3457,-2.3499,-2.3502,-2.3504,0,0,0,0,0,0,0,0,0,0,0,0,0,-2.3346,-2.3349,-2.3468,-2.3469,-2.3469,-2.351,-2.3511,-2.3512,-2.3462,-2.346,-2.3458,-2.3456,-2.3498,-2.3501,-2.3505,0,0,0,0,0,0,0,0,0,0,0,0,0,-2.3395,-2.335,-2.3468,-2.345,-2.3448,-2.351,-2.3511,-2.3512,-2.3463,-2.346,-2.3457,-2.3455,-2.3497,-2.3501,-2.3505,-2.3587,0,0,-2.3518,-2.352,0,0,0,0,0,0,0,0,-2.3392,-2.34,-2.3452,-2.3451,-2.345,-2.3478,-2.3483,-2.3537,-2.3463,-2.3457,-2.3456,-2.3453,-2.3494,-2.3498,-2.3512,-2.3589,-2.3591,-2.3519,-2.3521,-2.3523,-2.3524,0,0,0,0,0,0,0,-2.3389,-2.3397,-2.3485,-2.3453,-2.3451,-2.344,-2.3444,-2.3493,-2.3491,-2.3458,-2.3454,-2.346,-2.3493,-2.3508,-2.3513,-2.3591,-2.3518,-2.3522,-2.3525,-2.3527,-2.374,-2.3743,0,0,0,0,0,0,-2.3388,-2.3395,-2.3483,-2.3486,-2.3414,-2.3444,-2.3449,-2.3472,-2.349,-2.349,-2.3462,-2.3457,-2.3502,-2.3508,-2.3514,-2.3612,-2.3523,-2.3527,-2.3529,-2.3737,-2.3741,-2.3744,0,0,0,0,0,0,-2.3385,-2.3396,-2.3482,-2.344,-2.345,-2.3449,-2.3476,-2.3474,-2.3489,-2.3493,-2.3493,-2.3478,-2.35,-2.3508,-2.357,-2.3613,-2.3529,-2.3533,-2.3733,-2.3738,-2.3742,-2.3808,0,0,0,0,0,0,-2.3382,-2.3395,-2.3426,-2.3441,-2.3452,-2.3536,-2.3478,-2.3477,-2.3497,-2.3491,-2.3508,-2.3509,-2.3499,-2.3564,-2.3574,-2.3617,-2.3536,-2.3729,-2.3735,-2.3741,-2.3802,-2.3814,-2.3825,0,0,0,0,0,-2.3378,-2.3442,-2.3427,-2.3438,-2.349,-2.3539,-2.3545,-2.3533,-2.3501,-2.3531,-2.3535,-2.3508,-2.3607,-2.3571,-2.3582,-2.3627,-2.3726,-2.3734,-2.374,-2.3797,-2.3812,-2.3825,0,0,0,0,0,0,-2.343,-2.3443,-2.3427,-2.3498,-2.3518,-2.353,-2.3568,-2.3549,-2.3578,-2.3571,-2.3555,-2.3559,-2.3625,-2.3632,-2.3591,-2.3708,-2.3662,-2.3671,-2.3701,-2.3715,-2.3726,-2.3722,-2.354,0,0,0,0,0,-2.345,-2.3489,-2.3498,-2.3559,-2.357,-2.3568,-2.3589,-2.3578,-2.3598,-2.3606,-2.3613,-2.3633,-2.3669,-2.3693,-2.3726,-2.3804,-2.3808,-2.3841,-2.3852,-2.3862,-2.387,-2.3913,-2.3928,-2.3767,-2.3767,-2.3767,0,0,-2.3491,-2.3503,-2.3528,-2.357,-2.3584,-2.3625,-2.3575,-2.3619,-2.365,-2.3612,-2.3671,-2.3678,-2.3699,-2.377,-2.3802,-2.3778,-2.3916,-2.3871,-2.3878,-2.3881,-2.3922,-2.3937,-2.3951,-2.3772,-2.3771,-2.377,0,0,-2.3587,-2.36,-2.3653,-2.3669,-2.3692,-2.369,-2.3704,-2.372,-2.3724,-2.3783,-2.3756,-2.3793,-2.3854,-2.3871,-2.3888,-2.3996,-2.3972,-2.4007,-2.4066,-2.4109,-2.4122,-2.4133,-2.4171,-2.4185,-2.4015,-2.4016,-2.4016,0,-2.3634,-2.3694,-2.3683,-2.373,-2.375,-2.372,-2.3775,-2.3791,-2.3823,-2.3838,-2.3812,-2.3891,-2.3903,-2.3978,-2.4005,-2.402,-2.4035,-2.4003,-2.4121,-2.4132,-2.4142,-2.4179,-2.4193,-2.402,-2.4019,-2.4019,-2.4018,0,-2.3752,-2.3795,-2.3835,-2.3869,-2.3894,-2.3944,-2.3941,-2.3969,-2.3958,-2.396,-2.4022,-2.4037,-2.4073,-2.4091,-2.4079,-2.4165,-2.415,-2.4123,-2.4075,-2.4162,-2.4196,-2.421,-2.4025,-2.4024,-2.4023,-2.4022,0,0,-2.3877,-2.3907,-2.3922,-2.3938,-2.3963,-2.3995,-2.4047,-2.4083,-2.4107,-2.4132,-2.4174,-2.423,-2.4206,-2.4225,-2.4217,-2.4254,-2.434,-2.4223,-2.4223,-2.4244,-2.4437,-2.4456,-2.4472,-2.4326,-2.4329,-2.4331,-2.4435,0,-2.3972,-2.406,-2.4053,-2.4136,-2.4176,-2.4151,-2.4196,-2.4217,-2.4222,-2.4257,-2.4262,-2.4302,-2.4267,-2.4279,-2.4315,-2.4322,-2.4378,-2.4314,-2.4365,-2.4367,-2.4359,-2.449,-2.4509,-2.4606,-2.4448,-2.445,-2.4452,0,-2.4094,-2.4125,-2.4212,-2.4234,-2.4251,-2.4291,-2.4326,-2.436,-2.4384,-2.4385,-2.4409,-2.4395,-2.4448,-2.4402,-2.4475,-2.4432,-2.4453,-2.446,-2.4464,-2.4466,-2.4413,-2.4495,-2.4637,-2.4651,-2.4473,-2.4471,-2.447,0,-2.4176,-2.424,-2.43,-2.4315,-2.4342,-2.4371,-2.4384,-2.4406,-2.443,-2.4461,-2.4477,-2.4514,-2.4533,-2.4563,-2.456,-2.4527,-2.4635,-2.4588,-2.4637,-2.4638,-2.4659,-2.4657,-2.4805,-2.4676,-2.4675,-2.4675,-2.4675,0,-2.4282,-2.4336,-2.4338,-2.4375,-2.4436,-2.443,-2.4491,-2.45,-2.4521,-2.456,-2.4542,-2.458,-2.4574,-2.4613,-2.4611,-2.4673,-2.4682,-2.4685,-2.4683,-2.4685,-2.4685,-2.4697,-2.469,-2.4679,-2.4678,-2.4677,-2.4677,0,-2.4382,-2.4385,-2.445,-2.4472,-2.448,-2.4524,-2.4543,-2.4579,-2.4584,-2.4635,-2.4646,-2.4654,-2.4699,-2.47,-2.475,-2.475,-2.4825,-2.4816,-2.4816,-2.4814,-2.4863,-2.4858,-2.5023,-2.5044,-2.4902,-2.4904,-2.4905,0,-2.4448,-2.449,-2.4518,-2.4543,-2.4558,-2.46,-2.4625,-2.4621,-2.4648,-2.4682,-2.4714,-2.4758,-2.4792,-2.4865,-2.4875,-2.4915,-2.4907,-2.4962,-2.4912,-2.4914,-2.4907,-2.4904,-2.4908,-2.4971,-2.4972,-2.4973,-2.4974,0,-2.4566,-2.4566,-2.4603,-2.4642,-2.4673,-2.4703,-2.473,-2.4753,-2.4753,-2.4785,-2.4831,-2.4858,-2.4911,-2.4955,-2.4994,-2.5008,-2.4992,-2.4991,-2.5004,-2.5005,-2.5004,-2.5005,-2.4841,-2.4986,-2.4985,-2.4984,-2.4983,-2.4983,-2.465,-2.4687,-2.4713,-2.4755,-2.4777,-2.4804,-2.484,-2.4851,-2.4889,-2.4933,-2.493,-2.4981,-2.5008,-2.506,-2.5078,-2.5119,-2.5099,-2.5119,-2.5124,-2.5128,-2.5133,-2.4999,-2.5126,-2.5126,-2.5125,-2.5125,-2.5125,0,-2.4766,-2.4782,-2.4822,-2.4863,-2.4897,-2.4881,-2.4912,-2.4942,-2.4987,-2.5014,-2.505,-2.5104,-2.5148,-2.5164,-2.5206,-2.5236,-2.523,-2.5247,-2.5244,-2.5248,-2.5148,-2.5132,-2.5252,-2.5252,-2.5252,-2.5252,-2.5252,-2.5252,-2.483,-2.4891,-2.4896,-2.4969,-2.4986,-2.5036,-2.5056,-2.5082,-2.5104,-2.5166,-2.5202,-2.5213,-2.5236,-2.5281,-2.5321,-2.5325,-2.5341,-2.5361,-2.5362,-2.5268,-2.5255,-2.5242,-2.5227,-2.5365,-2.5365,-2.5458,-2.5459,-2.546]},{"header":{"parameterUnit":"m.s-1","parameterCategory":1,"la1":30.2991,"la2":30.254,"lo1":-89.0895,"lo2":-89.0444,"dy":0.0017,"dx":0.0017,"nx":28,"ny":28,"refTime":"2024-06-02T21:00:00:Z","depth":0,"parameterNumber":3,"parameterNumberName":"V-component_of_WINDS"},"data":[0,0,0,0,0,0,0,0,0,0,0,0,0,0,0,0,0,0,0,0,0,0,0,0,0,0,0,0,0,0,0,0,0,0,0,0,0,0,0,0,0,0,0,0,0,0,0,0,0,0,0,0,0,0,0,0,0,0,2.7454,2.7452,0,2.7255,2.7252,2.725,2.7122,2.7121,2.712,2.7119,2.6913,2.6909,2.6904,0,0,0,0,0,0,0,0,0,0,0,0,0,2.7722,2.7717,2.7454,2.7451,2.7449,2.7255,2.7252,2.725,2.7122,2.7121,2.712,2.7119,2.6915,2.6909,2.6904,0,0,0,0,0,0,0,0,0,0,0,0,0,2.7572,2.7716,2.7454,2.7362,2.7351,2.7256,2.7252,2.7249,2.7122,2.7121,2.7119,2.7118,2.6917,2.691,2.6903,2.6883,0,0,2.6881,2.6878,0,0,0,0,0,0,0,0,2.7581,2.7563,2.7378,2.7368,2.7356,2.7212,2.7271,2.7126,2.7122,2.7209,2.7119,2.7118,2.7013,2.6998,2.6963,2.6873,2.6864,2.688,2.6876,2.6873,2.6871,0,0,0,0,0,0,0,2.7591,2.757,2.7375,2.7375,2.7362,2.733,2.7307,2.7243,2.712,2.7201,2.7192,2.717,2.7007,2.6971,2.6958,2.6861,2.6881,2.6874,2.687,2.6867,2.6744,2.6745,0,0,0,0,0,0,2.7617,2.758,2.7381,2.7369,2.7468,2.7326,2.7301,2.7259,2.7121,2.7098,2.7171,2.7165,2.6983,2.6966,2.695,2.6916,2.6873,2.6866,2.6862,2.6743,2.6744,2.6745,0,0,0,0,0,0,2.7623,2.76,2.7389,2.7472,2.7442,2.7322,2.7277,2.7256,2.7219,2.7098,2.7075,2.7156,2.6982,2.696,2.69,2.6908,2.6863,2.6857,2.6742,2.6743,2.6744,2.6851,0,0,0,0,0,0,2.7631,2.7603,2.7595,2.7473,2.7439,2.7344,2.7278,2.7253,2.7208,2.7197,2.7078,2.7057,2.6979,2.6912,2.6893,2.6897,2.6851,2.674,2.6742,2.6744,2.6846,2.6855,2.6864,0,0,0,0,0,2.7641,2.7632,2.7595,2.7572,2.7425,2.7345,2.7325,2.7236,2.7209,2.7199,2.7121,2.7061,2.691,2.6907,2.6885,2.6887,2.6739,2.6742,2.6744,2.6842,2.6854,2.6864,0,0,0,0,0,0,2.7757,2.7614,2.7571,2.7523,2.7447,2.7323,2.7308,2.7252,2.7181,2.7175,2.7067,2.7041,2.6992,2.6933,2.6932,2.686,2.6818,2.6816,2.69,2.691,2.6919,2.6933,2.6845,0,0,0,0,0,2.7777,2.7724,2.7602,2.7571,2.7535,2.7429,2.739,2.7328,2.7245,2.7212,2.7129,2.7051,2.6985,2.6944,2.6878,2.6837,2.6809,2.6828,2.6837,2.6845,2.6844,2.6818,2.6824,2.6752,2.6752,2.6752,0,0,2.7818,2.7733,2.7706,2.7592,2.7526,2.7473,2.7402,2.7349,2.7308,2.7203,2.7142,2.7079,2.6984,2.6934,2.6908,2.6883,2.6858,2.6848,2.6855,2.6849,2.6821,2.6828,2.6834,2.6754,2.6754,2.6753,0,0,2.7864,2.7795,2.7761,2.7697,2.7598,2.7528,2.752,2.7405,2.7359,2.7296,2.7217,2.7167,2.7057,2.6992,2.6945,2.6968,2.691,2.695,2.6996,2.6972,2.6977,2.6982,2.6989,2.6994,2.695,2.695,2.695,0,2.7927,2.7844,2.7751,2.7702,2.7654,2.7559,2.7523,2.7465,2.735,2.7319,2.7293,2.7154,2.7083,2.7016,2.7022,2.6987,2.6974,2.6962,2.6984,2.6988,2.699,2.6996,2.7,2.6955,2.6955,2.6954,2.6953,0,2.7925,2.7869,2.7854,2.7745,2.7696,2.7654,2.7555,2.7515,2.7459,2.7391,2.7328,2.724,2.7154,2.7134,2.7077,2.7059,2.7047,2.7005,2.696,2.7004,2.7008,2.701,2.6963,2.6961,2.6959,2.6958,0,0,2.8037,2.7879,2.7875,2.7825,2.771,2.7664,2.7618,2.7535,2.7503,2.7427,2.7385,2.7295,2.7255,2.7202,2.7138,2.7117,2.7141,2.7077,2.7073,2.7091,2.7114,2.7146,2.715,2.7102,2.7102,2.7102,2.7122,0,2.8066,2.7979,2.7894,2.7837,2.7784,2.7693,2.7653,2.7578,2.7514,2.7459,2.7387,2.7325,2.7278,2.7245,2.722,2.7143,2.7144,2.7141,2.7061,2.706,2.7087,2.7152,2.7186,2.7208,2.7123,2.7123,2.7123,0,2.8086,2.8016,2.7954,2.7844,2.7818,2.7784,2.7701,2.765,2.7563,2.7517,2.7459,2.7391,2.7338,2.7301,2.7226,2.7226,2.7188,2.7146,2.7145,2.7133,2.7093,2.7141,2.7213,2.7217,2.7125,2.7125,2.7124,0,2.8174,2.8063,2.8011,2.7971,2.7842,2.782,2.7765,2.7677,2.7632,2.7559,2.7529,2.7452,2.7409,2.735,2.7263,2.7244,2.7197,2.7152,2.7157,2.7159,2.715,2.7152,2.7216,2.7128,2.7128,2.7128,2.7128,0,2.8213,2.8179,2.8049,2.8017,2.7976,2.7879,2.7841,2.7778,2.77,2.7654,2.7571,2.753,2.7418,2.7363,2.7295,2.7243,2.7225,2.7186,2.7168,2.7193,2.7198,2.7166,2.7162,2.7129,2.7129,2.7129,2.7129,0,2.8303,2.8215,2.8152,2.8036,2.8006,2.798,2.788,2.7846,2.7777,2.772,2.7701,2.7594,2.7525,2.7433,2.7335,2.7289,2.7246,2.7218,2.7276,2.7265,2.7274,2.7275,2.732,2.7321,2.7234,2.7235,2.7236,0,2.8334,2.8305,2.8186,2.815,2.8098,2.804,2.7994,2.7899,2.7854,2.7754,2.7732,2.7657,2.7591,2.7486,2.7399,2.7324,2.7293,2.7314,2.7281,2.7307,2.7292,2.7295,2.7291,2.7322,2.7324,2.7325,2.7326,0,2.8397,2.8355,2.8293,2.8216,2.8164,2.8098,2.8028,2.8003,2.7893,2.7847,2.7777,2.7726,2.7627,2.7554,2.7467,2.741,2.7349,2.7337,2.7334,2.7358,2.7393,2.7374,2.7297,2.7336,2.7335,2.7334,2.7334,2.7333,2.8457,2.8428,2.834,2.8273,2.8211,2.8148,2.811,2.8038,2.7977,2.789,2.7837,2.7768,2.7682,2.756,2.7505,2.745,2.7426,2.7422,2.742,2.7421,2.7429,2.7403,2.7434,2.7433,2.7433,2.7433,2.7432,0,2.8516,2.8455,2.8395,2.8301,2.8249,2.8198,2.8118,2.8078,2.8019,2.7944,2.7882,2.7801,2.7729,2.7637,2.7559,2.7532,2.7503,2.7515,2.7516,2.7503,2.7455,2.7465,2.754,2.754,2.754,2.754,2.754,2.754,2.8541,2.8488,2.8436,2.8352,2.829,2.8223,2.8182,2.8124,2.8063,2.7977,2.7917,2.7858,2.7776,2.7691,2.7624,2.7598,2.7573,2.7594,2.756,2.7516,2.7507,2.7497,2.7506,2.759,2.759,2.7613,2.7613,2.7614]}]]